EW3803 Weather Reports


time (UTC)temp
C
wind
direction
speed
KPH
gust
KPH
rain 1hr
cm
rain 24hr
cm
rain mn
cm
humidity
%
barometer
mb
20260505204510 15 233 16.1 24.1 0.00 0.00 0.00 80 1016.2
20260505203018 15 224 14.5 27.4 0.00 0.00 0.00 79 1016.1
20260505201520 15 253 16.1 25.7 0.00 0.00 0.00 79 1016.0
20260505200030 15 234 16.1 25.7 0.00 0.00 0.00 79 1016.0
20260505194526 15 225 16.1 27.4 0.00 0.00 0.00 80 1015.8
20260505193013 15 244 12.9 29.0 0.00 0.00 0.00 79 1015.7
20260505191519 15 194 12.9 29.0 0.00 0.00 0.00 78 1015.7
20260505190028 15 188 19.3 33.8 0.00 0.00 0.00 78 1015.7
20260505184524 15 209 19.3 33.8 0.00 0.00 0.00 77 1015.7
20260505183033 15 213 17.7 30.6 0.00 0.00 0.00 77 1015.5
20260505181519 16 223 19.3 37.0 0.00 0.00 0.00 75 1015.7
20260505180023 16 205 20.9 35.4 0.00 0.00 0.00 74 1015.8
20260505174526 16 208 17.7 38.6 0.00 0.00 0.00 74 1015.9
20260505173028 16 224 20.9 37.0 0.00 0.00 0.00 71 1016.0
20260505171529 16 227 17.7 35.4 0.00 0.00 0.00 73 1016.2
20260505170017 16 217 17.7 32.2 0.00 0.00 0.00 73 1016.2
20260505164504 16 200 20.9 35.4 0.00 0.00 0.00 72 1016.2
20260505163015 16 223 19.3 37.0 0.00 0.00 0.00 71 1016.3
20260505161516 16 227 24.1 38.6 0.00 0.00 0.00 71 1016.3
20260505153008 17 200 17.7 35.4 0.00 0.00 0.00 67 1016.4
20260505151508 17 231 17.7 33.8 0.00 0.00 0.00 63 1016.5
20260505124523 17 246 12.9 24.1 0.00 0.00 0.00 63 1017.3
20260505123028 17 175 16.1 27.4 0.00 0.00 0.00 65 1017.3
20260505121533 17 229 12.9 24.1 0.00 0.00 0.00 66 1017.6
20260505120024 17 227 14.5 25.7 0.00 0.00 0.00 65 1017.6
20260505114519 17 184 11.3 22.5 0.00 0.00 0.00 66 1017.7
20260505113018 17 186 12.9 20.9 0.00 0.00 0.00 67 1017.7
20260505111523 17 187 9.7 20.9 0.00 0.00 0.00 67 1017.9
20260505101539 16 240 12.9 22.5 0.00 0.00 0.00 67 1017.8
20260505100026 16 260 12.9 29.0 0.00 0.00 0.00 67 1017.9
20260505094512 16 244 12.9 27.4 0.00 0.00 0.00 67 1017.7
20260505093018 16 235 16.1 22.5 0.00 0.00 0.00 68 1017.7
20260505091519 16 259 14.5 20.9 0.00 0.00 0.00 68 1017.8
20260505090025 16 205 9.7 20.9 0.00 0.00 0.00 70 1017.7
20260505084526 15 238 12.9 20.9 0.00 0.00 0.00 70 1017.7
20260505083018 15 244 12.9 20.9 0.00 0.00 0.00 70 1017.8
20260505081518 15 275 14.5 24.1 0.00 0.00 0.00 71 1017.8
20260505080024 15 229 14.5 20.9 0.00 0.00 0.00 73 1017.8
20260505074528 14 265 8.0 12.9 0.00 0.00 0.00 75 1017.6
20260505073009 13 257 9.7 14.5 0.00 0.00 0.00 76 1017.6
20260505071528 13 320 6.4 8.0 0.00 0.00 0.00 78 1017.6
20260505070026 13 333 3.2 12.9 0.00 0.00 0.00 79 1017.5
20260505064525 12 330 6.4 9.7 0.00 0.00 0.00 80 1017.3
20260505063027 12 325 4.8 8.0 0.00 0.00 0.00 82 1017.1
20260505061518 11 349 6.4 9.7 0.00 0.00 0.00 83 1017.0
20260505060035 11 333 6.4 9.7 0.00 0.00 0.00 83 1016.8
20260505054524 11 329 3.2 8.0 0.00 0.00 0.00 82 1016.9
20260505053027 11 325 6.4 8.0 0.00 0.00 0.00 82 1016.8
20260505051529 11 319 6.4 9.7 0.00 0.00 0.00 82 1016.8
20260505041510 11 333 4.8 8.0 0.00 0.00 0.00 82 1016.8
20260505040016 11 318 4.8 8.0 0.00 0.00 0.00 82 1017.0
20260505034519 11 333 6.4 8.0 0.00 0.00 0.00 81 1017.1
20260505033006 12 340 4.8 8.0 0.00 0.00 0.00 81 1017.0
20260505031508 12 311 8.0 11.3 0.00 0.00 0.00 80 1017.0
20260505030016 12 317 4.8 11.3 0.00 0.00 0.00 80 1016.9
20260505024518 12 314 6.4 11.3 0.00 0.00 0.00 79 1017.0
20260505023025 12 284 6.4 12.9 0.00 0.00 0.00 78 1017.0
20260505021513 12 298 11.3 17.7 0.00 0.00 0.00 78 1017.1
20260505020012 13 307 6.4 14.5 0.00 0.00 0.00 77 1017.2
20260505014517 13 248 6.4 19.3 0.00 0.00 0.00 76 1017.2
20260505013020 13 269 12.9 19.3 0.00 0.00 0.00 77 1017.4
20260505011506 13 254 9.7 17.7 0.00 0.00 0.00 77 1017.6
20260505010009 13 263 8.0 19.3 0.00 0.00 0.00 77 1017.6
20260505004521 13 254 8.0 19.3 0.00 0.00 0.00 77 1017.7
20260505003021 13 258 12.9 22.5 0.00 0.00 0.00 77 1017.9
20260505001522 13 266 16.1 22.5 0.00 0.00 0.00 76 1018.0
20260505000016 13 244 14.5 29.0 0.00 0.00 0.00 76 1018.0
20260504234516 13 259 16.1 24.1 0.00 0.00 0.00 75 1018.1
20260504233016 13 238 16.1 24.1 0.00 0.00 0.00 75 1018.1
20260504231521 13 260 14.5 24.1 0.00 0.00 0.00 75 1018.0
20260504230022 13 248 17.7 29.0 0.00 0.00 0.00 74 1018.1
20260504224513 14 236 14.5 29.0 0.00 0.00 0.00 74 1018.2
20260504223015 14 226 14.5 25.7 0.00 0.00 0.00 75 1018.3
20260504221521 14 225 14.5 27.4 0.00 0.00 0.00 75 1018.2
20260504220037 14 233 20.9 30.6 0.00 0.00 0.00 74 1018.2
20260504214527 14 218 19.3 30.6 0.00 0.00 0.00 73 1018.2
20260504213012 15 239 14.5 27.4 0.00 0.00 0.00 73 1018.3
20260504211527 15 225 16.1 30.6 0.00 0.00 0.00 73 1018.1
20260504210025 15 215 16.1 27.4 0.00 0.00 0.00 75 1017.9